Home > Weather > Córdoba > Past weeks

Flag for Spain Weather for the Past 2 Weeks in Córdoba, Spain

Now
46 °F

Mostly cloudy.


Feels Like: 46 °F
Forecast: 46 / 58 °F
Wind: No wind

Location: Moron De La Frontera Airport

Current Time: Feb 8, 2016 at 5:30:07 AM

Latest Report: Feb 8, 2016 at 4:00 AM


Visibility: 6 mi

Pressure: 30.39 "Hg

Humidity: 93%

Dew point: 45 °F

Location of CórdobaLocation

Historic Weather in Córdoba — Graph

°F

Córdoba Temperature Yesterday

Maximum temperature yesterday: 63 °F (at 2:00 PM)
Minimum temperature yesterday: 50 °F (at 11:00 PM)
Average temperature yesterday: 58 °F

High & Low Weather Summary for the Past Weeks

 TemperatureHumidityPressure
High72 °F (Feb 1, 5:00 PM)100% (Jan 24, 4:00 AM)30.60 "Hg (Jan 24, 4:00 AM)
Low39 °F (Jan 27, 7:00 AM)40% (Feb 5, 4:00 PM)30.12 "Hg (Feb 6, 7:00 PM)
Average54 °F81%30.39 "Hg
* Reported Jan 24 4:00 AM — Feb 8 4:00 AM, Córdoba, Weather by CustomWeather, © 2016

Note: Actual official high and low records may vary slightly from our data, if they occured in-between our weather recording intervals... More about our weather records

Advertising

Córdoba Weather History for the Previous 24 Hours

 ConditionsComfort  
Time TempWeatherWind HumidityBarometerVisibility
4:00 AM
Mon, Feb 8
46 °FMostly cloudy.No wind93%30.39 "Hg6 mi
3:00 AM46 °FPassing clouds.5 mph93%30.39 "Hg6 mi
2:00 AM48 °FPassing clouds.7 mph94%30.39 "Hg6 mi
1:00 AM48 °FPassing clouds.3 mph94%30.42 "Hg6 mi
12:00 AM48 °FClear.5 mph94%30.42 "Hg10 mi
11:00 PM
Sun, Feb 7
50 °FClear.8 mph88%30.42 "Hg10 mi
10:00 PM52 °FClear.7 mph88%30.39 "Hg10 mi
9:00 PM55 °FPassing clouds.8 mph77%30.39 "HgN/A
8:00 PM54 °FClear.2 mph72%30.36 "Hg10 mi
7:00 PM59 °FPassing clouds.1 mph59%30.33 "HgN/A
6:00 PM63 °FPassing clouds.7 mph52%30.33 "HgN/A
5:00 PM63 °FPassing clouds.9 mph49%30.30 "HgN/A
4:00 PM63 °FPassing clouds.8 mph52%30.27 "HgN/A
3:00 PM63 °FPassing clouds.9 mph52%30.27 "HgN/A
2:00 PM63 °FScattered clouds.7 mph59%30.30 "HgN/A
1:00 PM61 °FScattered clouds.8 mph63%30.33 "HgN/A
12:00 PM59 °FBroken clouds.7 mph68%30.33 "HgN/A
11:00 AM59 °FClear.6 mph72%30.30 "Hg6 mi
10:00 AM55 °FScattered clouds.3 mph88%30.27 "Hg5 mi
9:00 AM54 °FScattered clouds.6 mph94%30.24 "HgN/A
8:00 AM55 °FPassing clouds.12 mph94%30.21 "HgN/A
7:00 AM57 °FPassing clouds.14 mph94%30.18 "Hg5 mi
6:00 AM59 °FPassing clouds.17 mph94%30.15 "Hg3 mi
5:00 AM57 °FDrizzle. Dense fog.17 mph94%30.12 "Hg2 mi
Weather by CustomWeather, © 2016

See weather overviewHow to use our weather pages